This is the latest recevied weather packets stored in our database for station/object KY0TEQ-13. If no packets are shown the sender has not sent any weather packets the latest 10 day(s).
| Time | Temp. | Humidity | Pressure | Rain* | Wind** | Luminosity | Snow |
|---|---|---|---|---|---|---|---|
| 1777594454 | 15.56° C | 14% | 1297.2 hPa | 0 mm | - | 167 W/m² | - |
| 1777594149 | 15.56° C | 14% | 1297.1 hPa | 0 mm | - | 188 W/m² | - |
| 1777593846 | 16.11° C | 14% | 1297 hPa | 0 mm | - | 210 W/m² | - |
| 1777593542 | 16.11° C | 16% | 1297.1 hPa | 0 mm | - | 231 W/m² | - |
| 1777593236 | 16.11° C | 14% | 1297 hPa | 0 mm | - | 263 W/m² | - |
| 1777592936 | 16.11° C | 14% | 1297 hPa | 0 mm | - | 286 W/m² | - |
| 1777592632 | 16.67° C | 15% | 1296.8 hPa | 0 mm | - | 297 W/m² | - |
| 1777592329 | 16.67° C | 15% | 1296.8 hPa | 0 mm | - | 314 W/m² | - |
| 1777592023 | 16.11° C | 14% | 1297 hPa | 0 mm | - | 331 W/m² | - |
| 1777591721 | 16.67° C | 14% | 1296.7 hPa | 0 mm | - | 239 W/m² | - |
| 1777591416 | 16.67° C | 15% | 1296.7 hPa | 0 mm | - | 368 W/m² | - |
| 1777591112 | 16.11° C | 14% | 1296.7 hPa | 0 mm | - | 394 W/m² | - |
| 1777590808 | 16.67° C | 14% | 1296.6 hPa | 0 mm | - | 422 W/m² | - |
| 1777590505 | 16.11° C | 15% | 1296.6 hPa | 0 mm | - | 427 W/m² | - |
| 1777590200 | 17.22° C | 15% | 1296.8 hPa | 0 mm | - | 449 W/m² | - |
| 1777589898 | 16.67° C | 14% | 1296.8 hPa | 0 mm | - | 450 W/m² | - |
| 1777589593 | 16.67° C | 14% | 1296.8 hPa | 0 mm | - | 454 W/m² | - |
| 1777589291 | 16.67° C | 15% | 1296.7 hPa | 0 mm | - | 460 W/m² | - |
| 1777588989 | 16.67° C | 15% | 1297 hPa | 0 mm | - | 471 W/m² | - |
| 1777588684 | 16.67° C | 16% | 1296.7 hPa | 0 mm | - | 488 W/m² | - |
| 1777588380 | 16.67° C | 16% | 1296.8 hPa | 0 mm | - | 503 W/m² | - |
| 1777588076 | 17.22° C | 14% | 1297 hPa | 0 mm | - | 516 W/m² | - |
| 1777587772 | 16.67° C | 14% | 1297.2 hPa | 0 mm | - | 529 W/m² | - |
| 1777587470 | 16.67° C | 14% | 1297.1 hPa | 0 mm | - | 545 W/m² | - |
| 1777587168 | 16.67° C | 16% | 1296.8 hPa | 0 mm | - | 563 W/m² | - |
* Rain latest hour (hover to see other rain measurements)
** Current wind speed in m/s (hover to see current wind gust speed)